Regional Weather Roundup
Issued by NWS Huntsville, AL

Home | Current Version | Previous Version | Text Only | Print | Product List | Glossary On
Versions: 1 2 3 4 5 6 7 8 9 10 11 12 13 14 15 16 17 18 19 20 21 22 23 24 25 26 27 28 29 30 31 32 33 34 35 36 37 38 39 40 41 42 43 44 45 46 47 48 49 50
552
ASUS44 KHUN 190510
RWRHUN

WEATHER ROUNDUP FOR THE TENNESSEE VALLEY
NATIONAL WEATHER SERVICE HUNTSVILLE AL
1100 PM CST WED JAN 18 2017

ALZ001>004-190600-
NORTHWEST ALABAMA

CITY           SKY/WX    TMP DP  RH WIND       PRES   REMARKS
COURTLAND HCN    N/A     54 N/A N/A E3          N/A
RUSSELLVILLE     N/A     54 N/A N/A MISG        N/A
SHOALS AIRPORT CLOUDY    54  47  77 SE5       30.08F
SHOALS TVA RES   N/A     54 N/A N/A MISG        N/A
$$

ALZ005>007-016-190600-
NORTH CENTRAL ALABAMA

CITY           SKY/WX    TMP DP  RH WIND       PRES   REMARKS
CULLMAN AG STN   N/A     55 N/A N/A CALM        N/A
DECATUR AP     CLOUDY    54  49  83 NE3       30.08F
HUNTSVILLE AP  CLOUDY    56  48  74 E5        30.07F
MERIDIANVILLE  CLOUDY    50  45  81 CALM      30.08F
REDSTONE ARSN  CLOUDY    54  48  81 CALM      30.07F
VINEMONT AP    CLOUDY    55  50  82 CALM      30.10F
$$

ALZ008>010-190600-
NORTHEAST ALABAMA

CITY           SKY/WX    TMP DP  RH WIND       PRES   REMARKS
ALBERTVILLE    CLOUDY    54  54 100 CALM      30.08F
FORT PAYNE     CLOUDY    50  45  81 CALM      30.09F
SCOTTSBORO AP  CLOUDY    54  50  87 CALM      30.09F
SCOTTSBORO HCN   N/A     52 N/A N/A MISG        N/A
VALLEY HEAD      N/A     48 N/A N/A MISG        N/A
$$

TNZ076-096-097-190600-
SOUTHEASTERN MIDDLE TENNESSEE

CITY           SKY/WX    TMP DP  RH WIND       PRES   REMARKS
TULLAHOMA      PTCLDY    46  43  87 CALM      30.09R
WINCHESTER     MOCLDY    48  45  87 SW3       30.08F
$$

...SURROUNDING SITES...

CITY           SKY/WX    TMP DP  RH WIND       PRES   REMARKS
ATLANTA        CLOUDY    58  51  78 NW5       30.10S
ANNISTON       PTCLDY    54  53  97 NE3       30.10F
BIRMINGHAM     MOCLDY    57  55  93 CALM      30.10F
CHATTANOOGA    MOCLDY    51  44  77 CALM      30.11R
CORINTH        DRIZZLE   54  52  94 SE5       30.03F
DALTON         MOCLDY    46  45  93 CALM      30.10F
GADSDEN        CLOUDY    54  52  93 CALM      30.09F
GOLDEN TRNGL   CLOUDY    61  55  82 SE7       30.00F
HALEYVILLE     MOCLDY    56  51  84 CALM      30.09F
JACKSON TN     CLOUDY    51  46  83 N5        30.04F
MEMPHIS        CLOUDY    52  51  97 NE8       29.99F
NASHVILLE      CLOUDY    46  42  86 CALM      30.10F
OXFORD MS      LGT RAIN  54  52  94 SE10      30.02F
ROME           MOCLDY    52  48  86 CALM      30.10S
SAVANNAH       CLOUDY    55  50  82 S5        30.05S
TUPELO         LGT RAIN  56  53  90 SE5       30.04F
TUSCALOOSA     MOCLDY    57  56  96 CALM      30.07F
$$

...GULF COAST WEATHER...

CITY           SKY/WX    TMP DP  RH WIND       PRES   REMARKS
GULFPORT       FOG       66  66 100 SE9       30.05F VSB 1
PASCAGOULA     CLOUDY    67  65  93 SE5       30.06F FOG
MOBILE         FOG       67  65  93 SE7       30.07F VSB 1/4
GULF SHORES    FOG       66  66 100 S6        30.08S VSB 1/4
PENSACOLA      FOG       68  67  96 E5        30.07F VSB 1/4
DESTIN         FOG       66  65  96 CALM      30.08F VSB 1/2
PANAMA CITY    FOG       63  63 100 NE3       30.10F VSB 1/4
APPALACHICOLA  CLOUDY    63  63 100 CALM      30.11S
$$





USA.gov is the U.S. government's official web portal to all federal, state and local government web resources and services.